Location: *
(30.4476°N, 114.3798°E)
Time: 03:16:11
(UTC+00:00)

Cosmos 1300 - Pass Details

Date: 09 April 2020
Orbit: 511 x 515 km, 82.5° (Epoch: 31 May)

Event Time Altitude Azimuth Distance (km) Brightness Sun altitude
Exits shadow 12:24:12 46° 40° (NE) 702 3.1 -21.0°
Drops below altitude 10° 12:27:06 10° 14° (NNE) 1,741 5.5 -21.6°
Sets 12:29:15 0° 11° (N) 2,632 6.5 -22.0°
